Regional Weather Roundup
Issued by NWS

Home | Current Version | Previous Version | Graphics & Text | Print | Product List | Glossary On
Versions: 1 2 3 4 5 6 7 8 9 10 11 12 13 14 15 16 17 18 19 20 21 22 23 24 25 26 27 28 29 30 31 32 33 34 35 36 37 38 39 40 41 42 43 44 45 46 47 48 49 50
000
ASUS43 KDTX 290401
RWRMI
MICHIGAN HOURLY REGIONAL WEATHER ROUNDUP
NATIONAL WEATHER SERVICE DETROIT/PONTIAC MI
1100 PM EST WED JAN 28 2015

NOTE: "FAIR" INDICATES FEW OR NO CLOUDS BELOW 12,000 FEET WITH NO
SIGNIFICANT WEATHER AND/OR OBSTRUCTION TO VISIBILITY.

MIZ047>049-052>055-059>063-066>070-074>076-081>083-290500-
SOUTHEAST LOWER MICHIGAN

CITY           SKY/WX    TMP DP  RH WIND       PRES   REMARKS
ADRIAN         CLOUDY    23  15  71 S9        30.11F WCI  13
ALMA           CLOUDY    26  12  56 S8        30.05F WCI  17
ANN ARBOR      CLOUDY    24  15  68 SE10      30.11F WCI  14
BAD AXE        CLOUDY    22  14  71 S15       30.12F WCI   9
CARO           CLOUDY    25  10  53 SE10G17   30.09F WCI  15
DETROIT CITY   CLOUDY    25  15  66 S9        30.16F WCI  15
DETROIT        CLOUDY    24  14  65 SE9G17    30.16F WCI  14
FLINT          CLOUDY    26  11  52 S14       30.09F WCI  14
GROSSE ILE     CLOUDY    25  16  68 SE13      30.15F WCI  13
HILLSDALE      CLOUDY    24  16  70 SE10G20   30.04F WCI  14
HOWELL         CLOUDY    24  11  58 SE13G18   30.07F WCI  12

CITY           SKY/WX    TMP DP  RH WIND       PRES   REMARKS
JACKSON        CLOUDY    24  15  68 SE14G22   30.06F WCI  12
LAMBERTVILLE   MOCLDY    27  14  59 SE8       30.14F WCI  18
LANSING        CLOUDY    25  14  63 SE15G23   30.05F WCI  13
LAPEER         FAIR      24  10  54 S9G16     30.11F WCI  15
MASON          CLOUDY    24  15  69 S14       30.05F WCI  11
MONROE         CLOUDY    25  18  74 SE8       30.13F WCI  16
MT. CLEMENS    CLOUDY    22  18  83 SE12      30.14F WCI  11
PONTIAC        CLOUDY    23  13  65 SE13      30.10F WCI  11
PORT HOPE        N/A     24  11  57 S12G20    30.11F WCI  13
PORT HURON     CLOUDY    23  16  74 S8        30.18S WCI  14
TRI CITIES     CLOUDY    28  11  48 SE14G21   30.07F WCI  17
TROY           CLOUDY    26  14  58 SE8       30.16F WCI  18
SAGINAW HB     CLOUDY    28  12  50 SE13      30.08F WCI  18
$$
MIZ043>046-050>051-056>058-064>065-071>073-077>080-290500-
SOUTHWEST LOWER MICHIGAN

CITY           SKY/WX    TMP DP  RH WIND       PRES   REMARKS
BATTLE CREEK   CLOUDY    28  15  58 SE13      30.02F WCI  17
BENTON HARBOR  CLOUDY    28  19  69 SE16G25   29.96F WCI  16
BIG RAPIDS     CLOUDY    27   9  46 SE10      29.98F WCI  17
COLDWATER      CLOUDY    25  17  69 SE12G18   30.03F WCI  15
FREMONT        FAIR      28   4  36 SE9       29.97F WCI  19
HOLLAND        CLOUDY    29  16  58 SE17      29.98F WCI  17
GRAND RAPIDS   CLOUDY    27  14  58 SE12      30.01F WCI  17
IONIA          FAIR      26  16  66 SE15      30.02F WCI  14
KALAMAZOO      CLOUDY    27  16  63 S12G20    30.01F WCI  17
LUDINGTON      CLOUDY    31   8  38 SE10G17   29.95F WCI  22
MARSHALL       CLOUDY    25  16  67 SE7G22    30.03F WCI  17
MOUNT PLEASANT CLOUDY    26  10  52 SE8       30.03F WCI  17
MUSKEGON       CLOUDY    29  13  51 SE15G24   29.98F WCI  18
SOUTH HAVEN    CLOUDY    30  18  60 SE12      29.97S WCI  21
$$
MIZ016>042-290500-
NORTHERN LOWER MICHIGAN

CITY           SKY/WX    TMP DP  RH WIND       PRES   REMARKS
ALPENA         CLOUDY    25  14  63 S7        30.07F WCI  17
BEAVER ISLAND  CLOUDY    29  16  58 CALM      29.97F
BELLAIRE       CLOUDY    29  11  46 S8        29.99F WCI  21
CADILLAC       CLOUDY    25  10  51 SE9       29.94F WCI  16
CHARLEVOIX     CLOUDY    28  11  48 SE8       30.01F WCI  20
FRANKFORT      CLOUDY    30  14  50 SE10      29.94F WCI  21
GAYLORD        CLOUDY    24  11  57 S13       29.97F WCI  12
GRAYLING       CLOUDY    26  10  51 SE8       30.00F WCI  18
HARBOR SPRINGS CLOUDY    29  10  44 E3        29.99F
HOUGHTON LAKE  CLOUDY    25   9  50 SE12      30.00F WCI  14
MANISTEE       CLOUDY    30   9  40 SE7       29.95F WCI  23
OSCODA         CLOUDY    27  15  62 S13       30.08F WCI  16
PELLSTON       CLOUDY    28  13  53 SE8       30.01S WCI  20
ROGERS CITY    CLOUDY    26  16  63 SE10      30.05F WCI  17
TRAVERSE CITY  CLOUDY    29  11  47 SE9       29.96F WCI  20
$$
MIZ007>008-015-290500-
EASTERN UPPER MICHIGAN

CITY           SKY/WX    TMP DP  RH WIND       PRES   REMARKS
KINROSS        CLOUDY    25  19  80 SE9       30.01S WCI  15
MACKINAC ISLAN CLOUDY    29  11  47 SE8       30.00F WCI  21
NEWBERRY       CLOUDY    24  14  65 SE7       29.96S WCI  16
S. S. MARIE    CLOUDY    23  16  74 E9        30.01F WCI  13
MUNISING         N/A     32  22  66 S9        29.91S WCI  24
$$
MIZ004>006-011>014-085-290500-
CENTRAL UPPER MICHIGAN

CITY           SKY/WX    TMP DP  RH WIND       PRES   REMARKS
MANISTIQUE     CLOUDY    31  22  69 S12       29.94F WCI  21
ESCANABA       CLOUDY    30  21  69 S9        29.91F WCI  22
MENOMINEE      CLOUDY    30  21  69 S8        29.88F WCI  23
SAWYER-GWINN   CLOUDY    28  24  85 S15       29.85F WCI  17
$$
MIZ001>003-009>011-084-290500-
WESTERN UPPER MICHIGAN

CITY           SKY/WX    TMP DP  RH WIND       PRES   REMARKS
IRON MOUNTAIN  CLOUDY    28  23  81 SE9       29.84F WCI  19
HOUGHTON       CLOUDY    29  21  72 S7        29.82F WCI  22
COPPER HARBOR    N/A     32  24  72 SW8       29.84F WCI  25
IRONWOOD       CLOUDY    28  21  74 SW3       29.79F
$$

ABBREVIATIONS USED IN REMARKS
   TC - TEMPERATURE IN CELSIUS
  WCI - WIND CHILL INDEX
   HX - HEAT INDEX
  VSB - VISIBILITY



USA.gov is the U.S. government's official web portal to all federal, state and local government web resources and services.